| time (UTC) | temp F | wind direction | speed MPH | gust MPH | rain 1hr in | rain 24hr in | rain mn in | humidity % | barometer mb |
| 20260502170107 | 50 | 75 | 5.0 | 12.0 | 0.00 | 0.04 | 0.00 | 45 | 1019.5 |
| 20260502163056 | 49 | 24 | 4.0 | 14.0 | 0.00 | 0.04 | 0.00 | 47 | 1019.7 |
| 20260502161548 | 49 | 30 | 6.0 | 11.0 | 0.00 | 0.04 | 0.00 | 48 | 1019.9 |
| 20260502151530 | 47 | 76 | 7.0 | 14.0 | 0.00 | 0.04 | 0.00 | 52 | 1020.1 |
| 20260502123054 | 35 | 302 | 0.0 | 3.0 | 0.00 | 0.04 | 0.00 | 89 | 1020.3 |
| 20260502121550 | 34 | 269 | 0.0 | 0.0 | 0.00 | 0.04 | 0.00 | 89 | 1020.3 |
| 20260502114545 | 31 | 268 | 0.0 | 0.0 | 0.00 | 0.04 | 0.04 | 90 | 1020.0 |
| 20260502113050 | 30 | 268 | 0.0 | 0.0 | 0.00 | 0.04 | 0.04 | 90 | 1019.9 |
| 20260502111546 | 30 | 268 | 0.0 | 0.0 | 0.00 | 0.04 | 0.04 | 90 | 1019.7 |
| 20260502110041 | 29 | 268 | 0.0 | 0.0 | 0.00 | 0.05 | 0.04 | 90 | 1019.6 |
| 20260502104541 | 30 | 223 | 0.0 | 0.0 | 0.00 | 0.05 | 0.04 | 90 | 1019.7 |
| 20260502103010 | 30 | 223 | 0.0 | 0.0 | 0.00 | 0.05 | 0.04 | 90 | 1019.6 |
| 20260502101509 | 30 | 223 | 0.0 | 0.0 | 0.00 | 0.05 | 0.04 | 90 | 1019.5 |
| 20260502091503 | 30 | 223 | 0.0 | 0.0 | 0.00 | 0.05 | 0.04 | 90 | 1019.5 |
| 20260502090116 | 30 | 223 | 0.0 | 0.0 | 0.00 | 0.06 | 0.04 | 90 | 1019.5 |
| 20260502070104 | 32 | 223 | 0.0 | 2.0 | 0.00 | 0.06 | 0.04 | 90 | 1019.5 |
| 20260502064557 | 32 | 223 | 0.0 | 0.0 | 0.00 | 0.06 | 0.04 | 90 | 1019.6 |
| 20260502063050 | 33 | 223 | 0.0 | 0.0 | 0.00 | 0.06 | 0.04 | 90 | 1019.8 |
| 20260502061543 | 33 | 223 | 0.0 | 0.0 | 0.00 | 0.06 | 0.04 | 90 | 1019.8 |
| 20260502060041 | 33 | 223 | 0.0 | 0.0 | 0.00 | 0.06 | 0.04 | 90 | 1019.9 |
| 20260502054541 | 33 | 223 | 0.0 | 0.0 | 0.00 | 0.06 | 0.04 | 90 | 1019.9 |
| 20260502053038 | 33 | 223 | 0.0 | 0.0 | 0.00 | 0.06 | 0.04 | 89 | 1020.0 |
| 20260502051538 | 33 | 223 | 0.0 | 0.0 | 0.00 | 0.06 | 0.04 | 89 | 1020.0 |
| 20260502050041 | 34 | 223 | 0.0 | 0.0 | 0.00 | 0.08 | 0.04 | 89 | 1019.9 |
| 20260502044533 | 33 | 223 | 0.0 | 0.0 | 0.00 | 0.08 | 0.04 | 89 | 1019.8 |
| 20260502043032 | 34 | 223 | 0.0 | 0.0 | 0.00 | 0.08 | 0.04 | 88 | 1019.7 |
| 20260502041531 | 34 | 223 | 0.0 | 0.0 | 0.00 | 0.08 | 0.04 | 88 | 1019.6 |
| 20260502040031 | 33 | 223 | 0.0 | 0.0 | 0.00 | 0.09 | 0.04 | 87 | 1019.6 |
| 20260502034559 | 34 | 223 | 0.0 | 0.0 | 0.00 | 0.09 | 0.04 | 86 | 1019.5 |
| 20260502033108 | 35 | 223 | 0.0 | 1.0 | 0.00 | 0.09 | 0.04 | 85 | 1019.6 |
| 20260502031525 | 35 | 223 | 0.0 | 0.0 | 0.01 | 0.09 | 0.04 | 83 | 1019.5 |
| 20260502030023 | 36 | 223 | 0.0 | 0.0 | 0.01 | 0.09 | 0.04 | 81 | 1019.5 |
| 20260502024519 | 36 | 223 | 0.0 | 1.0 | 0.01 | 0.09 | 0.04 | 80 | 1019.4 |
| 20260502023017 | 36 | 223 | 0.0 | 1.0 | 0.01 | 0.09 | 0.04 | 80 | 1019.3 |
| 20260502021514 | 37 | 223 | 0.0 | 0.0 | 0.01 | 0.08 | 0.03 | 79 | 1019.2 |
| 20260502020011 | 37 | 223 | 0.0 | 2.0 | 0.01 | 0.08 | 0.03 | 78 | 1019.1 |
| 20260502014514 | 37 | 222 | 1.0 | 3.0 | 0.01 | 0.08 | 0.03 | 77 | 1018.8 |
| 20260502013005 | 38 | 212 | 0.0 | 3.0 | 0.01 | 0.08 | 0.03 | 77 | 1018.8 |
| 20260502011503 | 38 | 213 | 0.0 | 3.0 | 0.00 | 0.07 | 0.02 | 78 | 1018.7 |
| 20260502010003 | 38 | 173 | 1.0 | 8.0 | 0.01 | 0.07 | 0.02 | 79 | 1018.6 |
| 20260502004559 | 39 | 208 | 1.0 | 7.0 | 0.01 | 0.07 | 0.02 | 81 | 1018.5 |
| 20260502003057 | 39 | 216 | 1.0 | 8.0 | 0.01 | 0.07 | 0.02 | 82 | 1018.5 |
| 20260502001626 | 39 | 183 | 3.0 | 6.0 | 0.01 | 0.07 | 0.02 | 84 | 1018.6 |
| 20260502000108 | 39 | 222 | 4.0 | 9.0 | 0.01 | 0.07 | 0.01 | 85 | 1018.3 |
| 20260501234549 | 39 | 223 | 1.0 | 6.0 | 0.01 | 0.07 | 0.01 | 86 | 1018.4 |
| 20260501233048 | 39 | 198 | 3.0 | 9.0 | 0.01 | 0.07 | 0.01 | 85 | 1018.4 |
| 20260501231645 | 39 | 231 | 5.0 | 8.0 | 0.01 | 0.07 | 0.01 | 83 | 1018.3 |
| 20260501230045 | 40 | 221 | 4.0 | 10.0 | 0.00 | 0.06 | 0.00 | 81 | 1018.2 |
| 20260501224600 | 41 | 178 | 3.0 | 10.0 | 0.00 | 0.06 | 0.00 | 77 | 1018.2 |
| 20260501223038 | 44 | 152 | 2.0 | 5.0 | 0.00 | 0.06 | 0.00 | 73 | 1017.9 |
| 20260501221536 | 43 | 243 | 4.0 | 10.0 | 0.00 | 0.06 | 0.00 | 72 | 1017.7 |
| 20260501220041 | 43 | 216 | 4.0 | 6.0 | 0.00 | 0.06 | 0.00 | 72 | 1017.6 |
| 20260501214534 | 44 | 269 | 3.0 | 11.0 | 0.00 | 0.06 | 0.00 | 72 | 1017.6 |
| 20260501213035 | 44 | 179 | 3.0 | 10.0 | 0.00 | 0.06 | 0.00 | 73 | 1017.6 |
| 20260501211533 | 44 | 212 | 3.0 | 9.0 | 0.00 | 0.06 | 0.00 | 74 | 1017.6 |
| 20260501210032 | 44 | 212 | 4.0 | 12.0 | 0.00 | 0.06 | 0.00 | 75 | 1017.5 |
| 20260501204530 | 44 | 202 | 3.0 | 9.0 | 0.00 | 0.06 | 0.00 | 77 | 1017.6 |
| 20260501203029 | 44 | 185 | 4.0 | 7.0 | 0.00 | 0.06 | 0.00 | 75 | 1017.7 |
| 20260501201528 | 44 | 183 | 3.0 | 10.0 | 0.00 | 0.06 | 0.00 | 74 | 1017.7 |
| 20260501200037 | 45 | 151 | 5.0 | 12.0 | 0.00 | 0.06 | 0.00 | 74 | 1017.5 |
| 20260501194525 | 45 | 144 | 4.0 | 11.0 | 0.00 | 0.06 | 0.00 | 73 | 1017.5 |
| 20260501193023 | 45 | 189 | 4.0 | 11.0 | 0.00 | 0.06 | 0.00 | 71 | 1017.4 |
| 20260501191521 | 45 | 218 | 3.0 | 10.0 | 0.00 | 0.06 | 0.00 | 70 | 1017.2 |
| 20260501190032 | 46 | 183 | 5.0 | 12.0 | 0.00 | 0.06 | 0.00 | 67 | 1017.1 |
| 20260501184514 | 48 | 150 | 2.0 | 12.0 | 0.00 | 0.06 | 0.00 | 53 | 1016.9 |
| 20260501183021 | 48 | 99 | 4.0 | 9.0 | 0.00 | 0.06 | 0.00 | 51 | 1016.9 |
| 20260501181612 | 47 | 94 | 4.0 | 11.0 | 0.00 | 0.06 | 0.00 | 53 | 1016.8 |
| 20260501180011 | 47 | 83 | 4.0 | 13.0 | 0.00 | 0.06 | 0.00 | 51 | 1016.7 |
| 20260501174545 | 47 | 80 | 4.0 | 17.0 | 0.00 | 0.06 | 0.00 | 52 | 1016.7 |
| 20260501173110 | 48 | 130 | 4.0 | 15.0 | 0.00 | 0.06 | 0.00 | 56 | 1016.6 |
| 20260501171536 | 47 | 68 | 6.0 | 14.0 | 0.00 | 0.06 | 0.00 | 54 | 1016.7 |